Вернуться в каталог

COSMOS 397 DEB

АктивенLEO
NORAD 5017·DEBRIS·🇷🇺 Russia

Запущен Feb 25, 1971 с Baikonur Cosmodrome

Loading…

Ближайшие Пролёты

TLE

Source: Space-Track
1 05017U 71015L   26218.65435508  .00001086  00000-0  39527-3 0  9996
2 05017  65.7109 323.4505 0700587 107.4173 260.4678 13.48903995646375

Отслеживайте COSMOS 397 DEB в реальном времени с AllMySat

Download on the App Store